TimeMDT,TemperatureF,Dew PointF,Humidity,Sea Level PressureIn,VisibilityMPH,Wind Direction,Wind SpeedMPH,Gust SpeedMPH,PrecipitationIn,Events,Conditions,WindDirDegrees,DateUTC
12:56 AM,12.9,10.0,88,30.55,-9999.0,NW,4.6,-,N/A,,Unknown,320,2013-10-05 06:56:00
1:56 AM,12.0,9.0,88,30.55,-9999.0,Calm,Calm,-,N/A,,Unknown,0,2013-10-05 07:56:00
2:56 AM,10.0,7.0,87,30.55,-9999.0,Calm,Calm,-,N/A,,Unknown,0,2013-10-05 08:56:00
3:56 AM,9.0,6.1,88,30.57,-9999.0,NNW,3.5,-,N/A,,Unknown,330,2013-10-05 09:56:00
4:56 AM,8.1,5.0,87,30.57,-9999.0,WNW,3.5,-,N/A,,Unknown,300,2013-10-05 10:56:00
5:56 AM,10.0,7.0,87,30.58,-9999.0,Calm,Calm,-,N/A,,Unknown,0,2013-10-05 11:56:00
6:56 AM,9.0,6.1,88,30.60,-9999.0,WNW,3.5,-,N/A,,Unknown,300,2013-10-05 12:56:00
7:56 AM,9.0,6.1,88,30.63,-9999.0,WNW,3.5,-,N/A,,Unknown,300,2013-10-05 13:56:00
8:56 AM,18.0,16.0,92,30.61,-9999.0,Calm,Calm,-,N/A,,Unknown,0,2013-10-05 14:56:00
9:56 AM,27.0,19.9,75,30.59,-9999.0,Calm,Calm,-,N/A,,Unknown,0,2013-10-05 15:56:00
10:56 AM,30.9,21.9,69,30.58,-9999.0,Calm,Calm,-,N/A,,Unknown,0,2013-10-05 16:56:00
11:56 AM,33.1,23.0,66,30.56,-9999.0,Variable,3.5,-,N/A,,Unknown,0,2013-10-05 17:56:00
12:56 PM,35.1,24.1,64,30.56,-9999.0,Calm,Calm,-,N/A,,Unknown,0,2013-10-05 18:56:00
1:56 PM,36.0,26.1,67,30.53,-9999.0,Calm,Calm,-,N/A,,Unknown,0,2013-10-05 19:56:00
2:56 PM,39.9,25.0,55,30.53,-9999.0,Calm,Calm,-,N/A,,Unknown,0,2013-10-05 20:56:00
3:56 PM,39.9,25.0,55,30.53,-9999.0,West,4.6,-,N/A,,Unknown,280,2013-10-05 21:56:00
4:56 PM,39.9,26.1,58,30.55,-9999.0,West,3.5,-,N/A,,Unknown,280,2013-10-05 22:56:00
5:56 PM,39.0,28.9,67,30.54,-9999.0,Calm,Calm,-,N/A,,Unknown,0,2013-10-05 23:56:00
6:56 PM,30.9,28.9,92,30.61,-9999.0,Calm,Calm,-,N/A,,Unknown,0,2013-10-06 00:56:00
7:56 PM,28.9,27.0,92,30.64,-9999.0,Calm,Calm,-,N/A,,Unknown,0,2013-10-06 01:56:00
8:56 PM,28.0,26.1,92,30.61,-9999.0,WNW,3.5,-,N/A,,Unknown,290,2013-10-06 02:56:00
9:56 PM,27.0,25.0,92,30.57,-9999.0,Calm,Calm,-,N/A,,Unknown,0,2013-10-06 03:56:00
10:56 PM,26.1,24.1,92,30.55,-9999.0,Calm,Calm,-,N/A,,Unknown,0,2013-10-06 04:56:00
11:56 PM,24.1,23.0,96,30.55,-9999.0,Calm,Calm,-,N/A,,Unknown,0,2013-10-06 05:56:00